Flag for New Zealand Weather past 2 weeks in Wellington, New Zealand

Now
57 °F

Light rain. Passing clouds.


Feels Like: 52 °F
Forecast: 54 / 58 °F
Wind: 26 mph from North

Location: Wellington Airport

Current Time: Jul 30, 2014 at 5:47:17 PM

Latest Report: Jul 30, 2014 at 5:00 PM


Visibility: 5 mi

Pressure: 29.86 "Hg

Humidity: 82%

Dew point: 52 °F

Location of WellingtonLocation

Historic Weather in Wellington — Graph

°F

Wellington temperature yesterday

Maximum temperature yesterday: 55 °F (at 2:00 PM)
Minimum temperature yesterday: 50 °F (at 7:30 AM)
Average temperature yesterday: 53 °F

Past Weeks' High & Low Weather Summary

 TemperatureHumidityPressure
High59 °F (Jul 30, 1:00 PM)100% (Jul 16, 7:00 PM)30.24 "Hg (Jul 16, 7:00 PM)
Low39 °F (Jul 24, 2:30 AM)58% (Jul 15, 5:30 PM)29.50 "Hg (Jul 21, 12:30 AM)
Average49 °F78%29.92 "Hg
* Reported Jul 15 4:00 PM — Jul 30 4:30 PM, Wellington, Weather by CustomWeather, © 2014

Note: Actual official high and low records may vary slightly from our data, if they occured in-between our weather recording intervals... More about our weather records

Advertising

Wellington weather history for previous 24 hours

 ConditionsComfort  
Time TempWeatherWind HumidityBarometerVisibility
4:30 PM
Jul 30
57 °FSprinkles. Passing clouds.25 mph82%29.86 "HgN/A
4:00 PM57 °FSprinkles. Partly sunny.24 mph82%29.89 "HgN/A
3:30 PM59 °FScattered showers. Partly sunny.24 mph72%29.89 "HgN/A
3:00 PM59 °FPartly sunny.25 mph72%29.86 "HgN/A
2:30 PM59 °FScattered clouds.21 mph72%29.86 "HgN/A
2:00 PM59 °FPartly sunny.28 mph72%29.86 "HgN/A
1:30 PM57 °FPartly sunny.30 mph72%29.86 "HgN/A
1:00 PM59 °FPartly sunny.21 mph72%29.89 "HgN/A
12:30 PM57 °FPartly sunny.25 mph77%29.92 "HgN/A
12:00 PM57 °FPartly sunny.23 mph77%29.95 "HgN/A
11:30 AM57 °FPartly sunny.23 mph77%29.95 "HgN/A
11:00 AM57 °FPartly sunny.23 mph77%29.95 "HgN/A
10:30 AM57 °FPartly sunny.23 mph77%29.95 "HgN/A
10:00 AM57 °FPartly sunny.23 mph77%29.95 "HgN/A
9:30 AM55 °FPartly sunny.20 mph82%29.95 "HgN/A
9:00 AM55 °FPartly sunny.16 mph82%29.98 "HgN/A
8:30 AM55 °FPassing clouds.15 mph77%29.98 "HgN/A
8:00 AM55 °FPassing clouds.15 mph77%29.98 "HgN/A
7:30 AM55 °FPassing clouds.17 mph77%29.98 "HgN/A
7:00 AM55 °FCool.15 mph77%29.95 "HgN/A
6:30 AM55 °FPassing clouds.16 mph77%29.95 "HgN/A
6:00 AM55 °FCool.20 mph77%29.95 "HgN/A
5:30 AM55 °FCool.20 mph77%29.95 "HgN/A
5:00 AM55 °FCool.17 mph72%29.95 "HgN/A
4:30 AM55 °FCool.20 mph77%29.95 "HgN/A
4:00 AM54 °FPassing clouds.18 mph82%29.95 "HgN/A
3:30 AM54 °FPassing clouds.17 mph82%29.95 "HgN/A
3:00 AM55 °FPassing clouds.20 mph82%29.98 "HgN/A
2:30 AM55 °FPassing clouds.18 mph82%29.98 "HgN/A
2:00 AM55 °FMostly cloudy.16 mph82%29.98 "HgN/A
1:30 AM55 °FPassing clouds.20 mph82%29.98 "HgN/A
1:00 AM55 °FPassing clouds.21 mph82%29.98 "HgN/A
12:30 AM55 °FPassing clouds.21 mph82%29.98 "HgN/A
12:00 AM55 °FPassing clouds.22 mph82%29.98 "HgN/A
11:30 PM
Jul 29
55 °FPassing clouds.30 mph82%29.98 "HgN/A
11:00 PM55 °FMostly cloudy.24 mph82%29.98 "HgN/A
10:30 PM55 °FMostly cloudy.24 mph88%29.98 "HgN/A
10:00 PM55 °FMostly cloudy.24 mph88%30.01 "HgN/A
9:30 PM55 °FLight rain. Overcast.21 mph88%30.01 "HgN/A
9:00 PM54 °FSprinkles. Passing clouds.21 mph94%30.01 "HgN/A
8:30 PM55 °FPassing clouds.22 mph82%30.01 "HgN/A
8:00 PM54 °FSprinkles. Passing clouds.23 mph88%30.01 "HgN/A
7:30 PM55 °FSprinkles. Passing clouds.24 mph82%30.01 "HgN/A
7:00 PM54 °FOvercast.23 mph88%30.01 "HgN/A
6:30 PM54 °FOvercast.17 mph88%30.01 "HgN/A
6:00 PM54 °FDrizzle. Overcast.21 mph82%30.01 "Hg6 mi
5:30 PM54 °FPassing clouds.24 mph82%30.01 "HgN/A
5:00 PM54 °FPassing clouds.22 mph88%30.01 "HgN/A
Weather by CustomWeather, © 2014

See weather overviewHow to use our weather pages